STARLINK-33689, 63322

Orbit data source: Space-Track

STARLINK-33689, 63322 is a payload satellite owned by SpaceX/Seattle (US) in LEO that was launched on Tue, 18 Mar 2025 UTC via an FALCON 9 launch vehicle from the Air Force Eastern Test Range (AFETR). Payload-class satellites include a variety of spacecraft equipped with specific instruments for various scientific and technological missions. These include communications satellites like Starlink; space stations such as the ISS; scientific satellites like the Hubble; Earth observation satellites from companies like Planet Labs, Umbra, and HawkEye 360; GPS; miniature CubeSats for education and research; and military/defense satellites.

Loading next visibility...
Identifier
63322, 2025-057R
Orbit
LEO
Last TLE update
1 day ago
Origin
Manufacturer
SpaceX/Seattle
Mission
Operational Commercial Communications
Bus & Motor
STARLINK V2MO, Unknown motor
Mass
575 kg wet, ~530 kg dry
Launch date (UTC)
2025-03-18 (2 months ago)
Launch vehicle
FALCON 9
Launch site
Air Force Eastern Test Range (AFETR)
Object type
Payload
Rocket body
Debris
Shape & HBR
Box + 1 Pan, 29 m
Radar Cross Section
41.120 m², Large (>1 m²)

Expand to show TLE details & history

TLE from 1 day ago
0 STARLINK-33689
1 63322U 25057R   25128.22026673 -.00007436  00000-0 -26068-3 0  9998
2 63322  42.9993 315.6491 0001708 275.2574  84.8083 15.27613460  9062
Epoch: 2025-05-08T05:17Z
Definitive object data (Epoch: 2025-05-08T05:17:11.045Z)
Latitude
Longitude
10.05919°
Altitude
482.618 km
Speed
7.626 km/s
True Right ascension
21h 02m 35s
True Declination
0° 00' 00"
Sunlit
Object was in daylight at TLE epoch
Visualization TLE readout
Latitude
-30.61307°
Longitude
-136.58947°
Altitude
490.558 km
Speed
7.621 km/s
Apparent Right ascension
07h 34m 12s
Apparent Declination
-62° 55' 20"
Sunlit
Object is in full shadow
Visualization observer readout
Local Sidereal Time
13:57:50
Azimuth
214.743° SW
Elevation
-37.393°
Doppler factor
1
Orbital elements
Apogee altitude
486.066 km
Perigee altitude
483.722 km
Semi-major axis
6,863.031 km
Eccentricity
0.0001708
Inclination
42.9993°
RAAN
315.6491°
Arg. of periapsis
275.2574°
True anomaly
84.82779°
Mean anomaly
84.8083°
Eccentric anomaly
84.81805°
Mean motion
3.81741 °/min
BSTAR
-0.00026068
Orbital period
94.3 mins
Loading maneuver chart data...
Loading SW <> Apogee altitude chart data...
Loading historical data...
Loading historical data...
Loading historical data...
Loading historical data...
Loading historical data...
Loading historical data...
Loading historical data...

STARLINK-33689 Visibility forecast

Observer location: undefined°, undefined°

Span
Click to sort rows by Start time (UTC) header in descending order
Start Az.
Max El. time (UTC)
Max El. Az.
Max El.
End time (UTC)
End Az.
4 mins2025-05-09 14:25:06.764Z174.733° S2025-05-09 14:27:06.764Z141.525° SSE14.17°2025-05-09 14:29:06.764Z108.48° ESE
6 mins2025-05-09 16:03:06.764Z234.975° WSW2025-05-09 16:05:06.764Z199.121° SSW40.352°2025-05-09 16:09:06.764Z75.226° E
6 mins2025-05-09 17:42:06.764Z280.924° WNW2025-05-09 17:44:06.764Z321.749° NNW37.257°2025-05-09 17:48:06.764Z72.334° E
6 mins2025-05-09 19:21:06.764Z292.13° WNW2025-05-09 19:24:06.764Z42.348° NE41.44°2025-05-09 19:27:06.764Z94.092° ESE
5 mins2025-05-09 21:01:06.764Z259.809° W2025-05-09 21:03:06.764Z190.197° SSW31.66°2025-05-09 21:06:06.764Z139.225° SSE
|